Time,TemperatureF,DewpointF,PressureIn,WindDirection,WindDirectionDegrees,WindSpeedMPH,WindSpeedGustMPH,Humidity,HourlyPrecipIn,Conditions,Clouds,dailyrainin,SoftwareType,DateUTC
2013-09-19 00:23:00,73.0,70.0,29.70,North,-999,-999.0,-999.0,88,-99.99,,,-99.99,,2013-09-19 05:23:00,
2013-09-19 00:43:00,73.0,68.0,29.67,North,-999,-999.0,-999.0,83,-99.99,,,-99.99,,2013-09-19 05:43:00,
2013-09-19 01:22:00,72.0,68.0,29.71,North,-999,-999.0,-999.0,88,-99.99,,,-99.99,,2013-09-19 06:22:00,
2013-09-19 01:43:00,72.0,66.0,29.71,North,-999,-999.0,-999.0,83,-99.99,,,-99.99,,2013-09-19 06:43:00,
2013-09-19 02:22:00,70.0,66.0,29.64,North,-999,-999.0,-999.0,88,-99.99,,,-99.99,,2013-09-19 07:22:00,
2013-09-19 02:42:00,70.0,66.0,29.69,North,-999,-999.0,-999.0,88,-99.99,,,-99.99,,2013-09-19 07:42:00,
2013-09-19 03:22:00,68.0,66.0,29.71,North,-999,-999.0,-999.0,93,-99.99,,,-99.99,,2013-09-19 08:22:00,
2013-09-19 03:32:00,68.0,66.0,29.71,North,-999,-999.0,-999.0,93,-99.99,,,-99.99,,2013-09-19 08:32:00,
2013-09-19 03:42:00,68.0,66.0,29.71,North,-999,-999.0,-999.0,93,-99.99,,,-99.99,,2013-09-19 08:42:00,
2013-09-19 04:21:00,66.0,64.0,29.70,North,-999,-999.0,-999.0,93,-99.99,,,-99.99,,2013-09-19 09:21:00,
2013-09-19 04:43:00,66.0,64.0,29.69,North,-999,-999.0,-999.0,93,-99.99,,,-99.99,,2013-09-19 09:43:00,
2013-09-19 04:53:00,66.0,64.0,29.69,North,-999,-999.0,-999.0,93,-99.99,,,-99.99,,2013-09-19 09:53:00,
2013-09-19 05:03:00,66.0,64.0,29.69,North,-999,-999.0,-999.0,93,-99.99,,,-99.99,,2013-09-19 10:03:00,
2013-09-19 05:12:00,66.0,64.0,29.69,North,-999,-999.0,-999.0,93,-99.99,,,-99.99,,2013-09-19 10:12:00,
2013-09-19 05:43:00,66.0,64.0,29.69,North,-999,-999.0,-999.0,93,-99.99,,,-99.99,,2013-09-19 10:43:00,
2013-09-19 06:22:00,66.0,64.0,29.71,North,-999,-999.0,-999.0,93,-99.99,,,-99.99,,2013-09-19 11:22:00,
2013-09-19 06:42:00,66.0,64.0,29.68,North,-999,-999.0,-999.0,93,-99.99,,,-99.99,,2013-09-19 11:42:00,
2013-09-19 07:21:00,64.0,63.0,29.71,North,-999,-999.0,-999.0,93,-99.99,,,-99.99,,2013-09-19 12:21:00,
2013-09-19 07:43:00,64.0,63.0,29.72,North,-999,-999.0,-999.0,93,-99.99,,,-99.99,,2013-09-19 12:43:00,
2013-09-19 08:11:00,64.0,63.0,29.79,North,-999,-999.0,-999.0,93,-99.99,,,-99.99,,2013-09-19 13:11:00,
2013-09-19 08:22:00,64.0,63.0,29.79,North,-999,-999.0,-999.0,93,-99.99,,,-99.99,,2013-09-19 13:22:00,
2013-09-19 08:43:00,66.0,64.0,29.75,North,-999,-999.0,-999.0,93,-99.99,,,-99.99,,2013-09-19 13:43:00,
2013-09-19 09:22:00,64.0,63.0,29.78,North,-999,-999.0,-999.0,93,-99.99,,,-99.99,,2013-09-19 14:22:00,
2013-09-19 09:42:00,64.0,63.0,29.80,North,-999,-999.0,-999.0,93,-99.99,,,-99.99,,2013-09-19 14:42:00,
2013-09-19 10:11:00,64.0,63.0,29.79,North,-999,-999.0,-999.0,93,-99.99,,,-99.99,,2013-09-19 15:11:00,
2013-09-19 10:22:00,64.0,63.0,29.79,North,-999,-999.0,-999.0,93,-99.99,,,-99.99,,2013-09-19 15:22:00,
2013-09-19 10:43:00,64.0,61.0,29.79,North,-999,-999.0,-999.0,88,-99.99,,,-99.99,,2013-09-19 15:43:00,
2013-09-19 10:54:00,64.0,61.0,29.79,North,-999,-999.0,-999.0,88,-99.99,,,-99.99,,2013-09-19 15:54:00,
2013-09-19 11:04:00,64.0,61.0,29.79,North,-999,-999.0,-999.0,88,-99.99,,,-99.99,,2013-09-19 16:04:00,
2013-09-19 11:24:00,64.0,61.0,29.82,North,-999,-999.0,-999.0,88,-99.99,,,-99.99,,2013-09-19 16:24:00,
2013-09-19 11:43:00,64.0,61.0,29.84,North,-999,-999.0,-999.0,88,-99.99,,,-99.99,,2013-09-19 16:43:00,
2013-09-19 12:23:00,64.0,59.0,29.85,North,-999,-999.0,-999.0,82,-99.99,,,-99.99,,2013-09-19 17:23:00,
2013-09-19 12:42:00,68.0,59.0,29.85,North,-999,-999.0,-999.0,72,-99.99,,,-99.99,,2013-09-19 17:42:00,
2013-09-19 13:22:00,72.0,55.0,29.85,North,-999,-999.0,-999.0,56,-99.99,,,-99.99,,2013-09-19 18:22:00,
2013-09-19 13:42:00,72.0,55.0,29.85,North,-999,-999.0,-999.0,56,-99.99,,,-99.99,,2013-09-19 18:42:00,
2013-09-19 13:52:00,73.0,55.0,29.85,North,-999,-999.0,-999.0,53,-99.99,,,-99.99,,2013-09-19 18:52:00,
2013-09-19 14:02:00,73.0,55.0,29.85,North,-999,-999.0,-999.0,53,-99.99,,,-99.99,,2013-09-19 19:02:00,
2013-09-19 14:22:00,75.0,54.0,29.85,North,-999,-999.0,-999.0,46,-99.99,,,-99.99,,2013-09-19 19:22:00,
2013-09-19 14:42:00,73.0,52.0,29.85,North,-999,-999.0,-999.0,46,-99.99,,,-99.99,,2013-09-19 19:42:00,
2013-09-19 15:22:00,75.0,48.0,29.85,North,-999,-999.0,-999.0,38,-99.99,,,-99.99,,2013-09-19 20:22:00,
2013-09-19 15:42:00,75.0,46.0,29.85,North,-999,-999.0,-999.0,35,-99.99,,,-99.99,,2013-09-19 20:42:00,
2013-09-19 16:22:00,75.0,46.0,29.84,North,-999,-999.0,-999.0,35,-99.99,,,-99.99,,2013-09-19 21:22:00,
2013-09-19 16:44:00,75.0,46.0,29.85,North,-999,-999.0,-999.0,35,-99.99,,,-99.99,,2013-09-19 21:44:00,
2013-09-19 17:24:00,75.0,48.0,29.86,North,-999,-999.0,-999.0,38,-99.99,,,-99.99,,2013-09-19 22:24:00,
2013-09-19 17:42:00,73.0,48.0,29.87,North,-999,-999.0,-999.0,40,-99.99,,,-99.99,,2013-09-19 22:42:00,
2013-09-19 17:53:00,73.0,48.0,29.87,North,-999,-999.0,-999.0,40,-99.99,,,-99.99,,2013-09-19 22:53:00,
2013-09-19 18:03:00,73.0,48.0,29.87,North,-999,-999.0,-999.0,40,-99.99,,,-99.99,,2013-09-19 23:03:00,
2013-09-19 18:22:00,70.0,50.0,29.88,North,-999,-999.0,-999.0,49,-99.99,,,-99.99,,2013-09-19 23:22:00,
2013-09-19 18:43:00,68.0,48.0,29.89,North,-999,-999.0,-999.0,49,-99.99,,,-99.99,,2013-09-19 23:43:00,
2013-09-19 19:22:00,68.0,50.0,29.89,North,-999,-999.0,-999.0,52,-99.99,,,-99.99,,2013-09-20 00:22:00,
2013-09-19 19:42:00,64.0,48.0,29.91,North,-999,-999.0,-999.0,55,-99.99,,,-99.99,,2013-09-20 00:42:00,
2013-09-19 20:22:00,63.0,48.0,29.92,North,-999,-999.0,-999.0,59,-99.99,,,-99.99,,2013-09-20 01:22:00,
2013-09-19 20:42:00,63.0,48.0,29.92,North,-999,-999.0,-999.0,59,-99.99,,,-99.99,,2013-09-20 01:42:00,
2013-09-19 21:22:00,61.0,52.0,29.94,North,-999,-999.0,-999.0,72,-99.99,,,-99.99,,2013-09-20 02:22:00,
2013-09-19 21:42:00,61.0,50.0,29.94,North,-999,-999.0,-999.0,67,-99.99,,,-99.99,,2013-09-20 02:42:00,
2013-09-19 22:23:00,57.0,48.0,29.94,North,-999,-999.0,-999.0,71,-99.99,,,-99.99,,2013-09-20 03:23:00,
2013-09-19 22:45:00,57.0,48.0,29.93,North,-999,-999.0,-999.0,71,-99.99,,,-99.99,,2013-09-20 03:45:00,
2013-09-19 22:55:00,57.0,48.0,29.93,North,-999,-999.0,-999.0,71,-99.99,,,-99.99,,2013-09-20 03:55:00,
2013-09-19 23:05:00,57.0,48.0,29.93,North,-999,-999.0,-999.0,71,-99.99,,,-99.99,,2013-09-20 04:05:00,
2013-09-19 23:24:00,55.0,48.0,29.94,North,-999,-999.0,-999.0,76,-99.99,,,-99.99,,2013-09-20 04:24:00,
2013-09-19 23:44:00,55.0,48.0,29.94,North,-999,-999.0,-999.0,76,-99.99,,,-99.99,,2013-09-20 04:44:00,
2013-09-19 23:53:00,55.0,48.0,29.94,North,-999,-999.0,-999.0,76,-99.99,,,-99.99,,2013-09-20 04:53:00,